Retour au catalogue

COSMOS 1594

GLONASS

ActifNavigationMEO
NORAD 15260·PAYLOAD·🇷🇺 Russia

Lancé Sep 4, 1984 depuis Baikonur Cosmodrome

Loading…

Prochains Passages (prochaines 24 heures)

TLE

FraisSource: Space-Track

Époque: Sep 11, 2026, 11:17 UTC

1 15260U 84095B   26254.47064613  .00000008  00000-0  00000-0 0  9998
2 15260  64.8429  71.6075 0004200 185.0663 182.2367  2.12637033326333

Suivez COSMOS 1594 en temps réel avec AllMySat

Download on the App Store